Tracking 18980 objects as of 18-Feb-2018
HD Live streaming from Space Station
objects crossing your sky now

COSMOS 713

Track COSMOS 713 now!
10-day predictions
COSMOS 713 is classified as:


NORAD ID: 7680
Int'l Code: 1975-016C
Perigee: 1,403.0 km
Apogee: 1,493.3 km
Inclination: 74.0 °
Period: 114.7 minutes
Semi major axis: 7819 km
RCS: 0.6922 m2 (medium)
Launch date: February 28, 1975
Source: Commonwealth of Independent States (former USSR) (CIS)
Launch site: PLESETSK MISSILE AND SPACE COMPLEX (PKMTR)
aabbcc
Your satellite tracking list
Your tracking list is empty




NASA's NSSDC Master Catalog

Two Line Element Set (TLE):
1  7680U 75016C   18048.66214156 -.00000021 +00000-0 -28680-4 0  9995
2  7680 074.0037 150.0290 0057753 077.4298 026.5244 12.55625905969631
Source of the keplerian elements: AFSPC